Regional Weather Roundup
Issued by NWS

Home | Current Version | Previous Version | Text Only | Print | Product List | Glossary On
Versions: 1 2 3 4 5 6 7 8 9 10 11 12 13 14 15 16 17 18 19 20 21 22 23 24 25 26 27 28 29 30 31 32 33 34 35 36 37 38 39 40 41 42 43 44 45 46 47 48 49 50
000
ASUS44 KOUN 060010
RWROK

WEATHER ROUNDUP FOR OKLAHOMA
NATIONAL WEATHER SERVICE NORMAN OK
700 PM CDT THU MAY 05 2016

NOTE: "FAIR" INDICATES FEW OR NO CLOUDS BELOW 12,000 FEET WITH NO
      SIGNIFICANT WEATHER AND/OR OBSTRUCTIONS TO VISIBILITY.

OKZ001>007-009>012-014-015-017-060100-
NORTHWEST OKLAHOMA AND THE PANHANDLE

CITY           SKY/WX    TMP DP  RH WIND       PRES   REMARKS
GAGE           SUNNY     81  46  29 SE10      30.00F
6HR MIN TEMP:  79; 6HR MAX TEMP:  84;

GUYMON         SUNNY     83  43  24 SE13      29.96S
ENID/WOODRING  MOSUNNY   79  48  34 E5        29.99F
$$

OKZ016-021>023-033>039-044-045-060100-
SOUTHWEST OKLAHOMA

CITY           SKY/WX    TMP DP  RH WIND       PRES   REMARKS
LAWTON/REGL    SUNNY     79  46  31 SE8       30.00F
6HR MIN TEMP:  77; 6HR MAX TEMP:  83;

LAWTON/FT SILL SUNNY     79  49  35 E5        30.00S
FREDERICK      SUNNY     81  49  32 SE7       29.98S
CLINTON        SUNNY     80  48  32 E9        30.04S
HOBART         SUNNY     81  49  32 E9        30.02S
ALTUS AFB      SUNNY     80  47  31 E10       30.00S
$$

OKZ018>020-024>031-060100-
CENTRAL OKLAHOMA

CITY           SKY/WX    TMP DP  RH WIND       PRES   REMARKS
OKLAHOMA CITY  MOSUNNY   79  41  25 E3        30.01F
6HR MIN TEMP:  76; 6HR MAX TEMP:  82;

OKC/WILEY POST SUNNY     78  43  28 E7        30.00F
OKC/TINKER AFB SUNNY     78  43  29 E5        30.00F
STILLWATER     SUNNY     78  43  28 N6        30.00F
GUTHRIE        SUNNY     78  42  27 NE6       30.00F
$$

OKZ008-013-054>072-060100-
NORTHEAST OKLAHOMA

CITY           SKY/WX    TMP DP  RH WIND       PRES   REMARKS
TULSA          MOSUNNY   77  44  30 NE7       29.98F
6HR MIN TEMP:  75; 6HR MAX TEMP:  80;

TULSA/JONES    SUNNY     76  45  33 N6        29.99F
PONCA CITY     SUNNY     78  44  29 N7        30.00F
BARTLESVILLE   SUNNY     75  43  31 NE6       30.01F
MUSKOGEE       SUNNY     75  44  33 N10       30.00F
$$

OKZ032-040>043-046>053-073>077-060100-
SOUTH CENTRAL/SOUTHEAST OKLAHOMA

CITY           SKY/WX    TMP DP  RH WIND       PRES   REMARKS
ARDMORE/DWNTWN SUNNY     77  39  25 NE3       29.99F
MCALESTER      SUNNY     76  45  33 VRB6      30.00F
$$




USA.gov is the U.S. government's official web portal to all federal, state and local government web resources and services.